Erie, PA

1:57 PM EDT on June 28, 2017 (GMT -0400)
Erie International

Weather History for KERI - December, 2013

Change the Weather History Date:

Thursday, December 26, 2013

  Actual Average Record
Temperature  
Mean Temperature 29 °F 30 °F  
Max Temperature 32 °F 35 °F 63 °F (1889)
Min Temperature 26 °F 24 °F -6 °F (1983)
Degree Days  
Heating Degree Days 36 36  
Month to date heating degree days 873 832  
Since 1 July heating degree days 2072 1988  
Cooling Degree Days 0 0  
Month to date cooling degree days 0 0  
Year to date cooling degree days 706 638  
Moisture  
Dew Point 23 °F    
Average Humidity 78    
Maximum Humidity 92    
Minimum Humidity 63    
Precipitation  
Precipitation 0.27 in 0.11 in 0.67 in (1949)
Month to date precipitation 5.61 3.17  
Year to date precipitation 54.11 41.59  
Snow  
Snow 3.60 in 1.00 in - ()
Month to date snowfall 42.0 22.1  
Since 1 July snowfall 57.6 30.8  
Snow Depth 2.00 in    
Sea Level Pressure  
Sea Level Pressure 30.18 in    
Wind  
Wind Speed 12 mph (SW)    
Max Wind Speed 23 mph    
Max Gust Speed 32 mph    
Visibility 4 miles    
Events Fog , Snow    
T = Trace of Precipitation, MM = Missing Value Source: NWS Daily Summary

Daily Weather History Graph

Daily Weather History Graph

Search for Another Location

Airport or City:

Trip Planner

Search our weather history database for the weather conditions in past years. The results will help you decide how hot, cold, wet, or windy it might be!

Date:

Astronomy

Dec. 26, 2013 Rise Set
Actual Time 7:47 AM EST 4:55 PM EST
Civil Twilight 7:16 AM EST 5:26 PM EST
Nautical Twilight 6:40 AM EST 6:02 PM EST
Astronomical Twilight 6:06 AM EST 6:36 PM EST
Moon 1:10 AM EST (12/26) 12:34 PM EST (12/26)
Length of Visible Light 10h 10m
Length of Day
9h 07m
Last Quarter, 38% of the Moon is Illuminated
Dec 26
Last Quarter
Jan 1
New
Jan 7
First Quarter
Jan 15
Full
Jan 24
Last Quarter

Hourly Weather History & Observations

Time (EST) Temp. Windchill Dew Point Humidity Pressure Visibility Wind Dir Wind Speed Gust Speed Precip Events Conditions
12:15 AM 26.6 °F 16.8 °F 17.6 °F 69% 30.15 in 10.0 mi South 10.4 mph - N/A   Overcast
12:51 AM 27.0 °F 16.1 °F 17.1 °F 66% 30.17 in 10.0 mi South 12.7 mph - N/A   Overcast
1:51 AM 28.0 °F 17.5 °F 19.0 °F 69% 30.14 in 10.0 mi South 12.7 mph - N/A   Overcast
2:51 AM 28.0 °F 18.6 °F 19.9 °F 72% 30.13 in 10.0 mi South 10.4 mph - N/A   Overcast
3:06 AM 28.4 °F 19.1 °F 19.4 °F 69% 30.10 in 10.0 mi South 10.4 mph - N/A   Overcast
3:51 AM 28.9 °F 18.6 °F 21.9 °F 75% 30.12 in 10.0 mi SSW 12.7 mph - N/A   Overcast
4:51 AM 28.9 °F 19.8 °F 23.0 °F 78% 30.09 in 10.0 mi SSW 10.4 mph - N/A   Overcast
5:33 AM 28.4 °F 19.1 °F 24.8 °F 86% 30.06 in 2.0 mi SSW 10.4 mph - 0.00 in Snow Light Snow
5:41 AM 28.4 °F 18.5 °F 24.8 °F 86% 30.06 in 1.5 mi SSW 11.5 mph - 0.00 in Snow Light Snow
5:51 AM 28.9 °F 19.8 °F 25.0 °F 85% 30.09 in 1.8 mi SSW 10.4 mph - 0.00 in Snow Light Snow
6:23 AM 28.4 °F 19.1 °F 24.8 °F 86% 30.06 in 2.0 mi SSW 10.4 mph - 0.01 in Snow Light Snow
6:35 AM 28.4 °F 18.5 °F 24.8 °F 86% 30.06 in 3.0 mi SSW 11.5 mph - 0.01 in Snow Light Snow
6:51 AM 28.9 °F 20.4 °F 25.0 °F 85% 30.09 in 5.0 mi SSW 9.2 mph - 0.01 in Snow Light Snow
7:38 AM 28.4 °F 18.5 °F 24.8 °F 86% 30.06 in 7.0 mi SSW 11.5 mph - 0.00 in Snow Light Snow
7:51 AM 28.9 °F 19.2 °F 24.1 °F 82% 30.10 in 6.0 mi SSW 11.5 mph - 0.00 in Snow Light Snow
8:14 AM 28.4 °F 17.0 °F 24.8 °F 86% 30.07 in 1.8 mi SSW 15.0 mph - 0.00 in Snow Light Snow
8:24 AM 28.4 °F 16.6 °F 24.8 °F 86% 30.06 in 1.8 mi SSW 16.1 mph - 0.01 in Snow Light Snow
8:31 AM 28.4 °F 17.5 °F 24.8 °F 86% 30.07 in 2.0 mi SSW 13.8 mph - 0.01 in Snow Light Snow
8:51 AM 30.0 °F 19.5 °F 25.0 °F 82% 30.10 in 2.0 mi SSW 13.8 mph 21.9 mph 0.01 in Snow Light Snow
9:12 AM 30.2 °F 19.8 °F 24.8 °F 80% 30.08 in 4.0 mi SW 13.8 mph - 0.00 in Snow Light Snow
9:19 AM 30.2 °F 18.5 °F 24.8 °F 80% 30.08 in 1.8 mi SW 17.3 mph 23.0 mph 0.00 in Snow Light Snow
9:32 AM 30.2 °F 21.9 °F 24.8 °F 80% 30.10 in 0.8 mi WSW 9.2 mph 23.0 mph 0.00 in Snow Light Snow
9:37 AM 28.4 °F 19.7 °F 26.6 °F 93% 30.10 in 0.5 mi West 9.2 mph - 0.00 in Fog , Snow Snow
9:47 AM 28.4 °F 18.0 °F 26.6 °F 93% 30.10 in 0.2 mi West 12.7 mph 20.7 mph 0.01 in Fog , Snow Heavy Snow
9:51 AM 28.9 °F 19.8 °F 26.1 °F 89% 30.14 in 0.2 mi West 10.4 mph 20.7 mph 0.02 in Fog , Snow Snow
10:00 AM 28.4 °F 21.2 °F 26.6 °F 93% 30.11 in 0.2 mi WSW 6.9 mph - 0.03 in Fog , Snow Snow
10:19 AM 28.4 °F 18.5 °F 26.6 °F 93% 30.12 in 0.8 mi WSW 11.5 mph 19.6 mph 0.05 in Snow Light Snow
10:32 AM 30.2 °F 21.3 °F 26.6 °F 86% 30.12 in 1.2 mi SW 10.4 mph 20.7 mph 0.05 in Snow Light Snow
10:39 AM 30.2 °F 20.2 °F 26.6 °F 86% 30.12 in 1.5 mi WSW 12.7 mph - 0.05 in Snow Light Snow
10:44 AM 30.2 °F 21.9 °F 26.6 °F 86% 30.12 in 3.0 mi SW 9.2 mph 20.7 mph 0.05 in Snow Light Snow
10:51 AM 30.0 °F 21.1 °F 26.1 °F 85% 30.15 in 4.0 mi WSW 10.4 mph - 0.05 in Snow Light Snow
11:11 AM 30.2 °F 20.8 °F 24.8 °F 80% 30.13 in 9.0 mi West 11.5 mph 23.0 mph 0.00 in   Overcast
11:24 AM 30.2 °F 19.3 °F 24.8 °F 80% 30.13 in 2.5 mi West 15.0 mph 25.3 mph 0.00 in Snow Light Snow
11:31 AM 32.0 °F 21.2 °F 24.8 °F 75% 30.13 in 7.0 mi West 16.1 mph 21.9 mph 0.01 in   Overcast
11:46 AM 30.2 °F 18.5 °F 24.8 °F 80% 30.14 in 1.8 mi West 17.3 mph 24.2 mph 0.01 in Snow Light Snow
11:51 AM 30.0 °F 18.3 °F 25.0 °F 82% 30.17 in 1.2 mi West 17.3 mph 27.6 mph 0.01 in Snow Light Snow
11:53 AM 30.2 °F 20.2 °F 24.8 °F 80% 30.14 in 0.8 mi West 12.7 mph 27.6 mph 0.00 in Snow Light Snow
12:04 PM 30.2 °F 20.2 °F 26.6 °F 86% 30.13 in 2.5 mi West 12.7 mph 20.7 mph 0.00 in Snow Light Snow
12:11 PM 30.2 °F 19.8 °F 24.8 °F 80% 30.13 in 8.0 mi West 13.8 mph 24.2 mph 0.00 in Snow Light Snow
12:51 PM 30.9 °F 20.2 °F 23.0 °F 72% 30.17 in 4.0 mi WSW 15.0 mph 32.2 mph 0.00 in   Overcast
1:01 PM 30.2 °F 19.3 °F 24.8 °F 80% 30.14 in 2.5 mi WSW 15.0 mph 25.3 mph 0.00 in Snow Light Snow
1:28 PM 30.2 °F 18.9 °F 23.0 °F 75% 30.15 in 3.0 mi WSW 16.1 mph 25.3 mph 0.00 in Snow Light Snow
1:51 PM 30.9 °F 19.4 °F 21.0 °F 67% 30.19 in 4.0 mi WSW 17.3 mph 32.2 mph 0.00 in Snow Light Snow
2:46 PM 30.2 °F 17.4 °F 21.2 °F 69% 30.18 in 4.0 mi West 20.7 mph 28.8 mph 0.00 in Snow Light Snow
2:51 PM 30.0 °F 19.5 °F 21.0 °F 69% 30.21 in 3.0 mi WSW 13.8 mph 28.8 mph 0.00 in Snow Light Snow
3:14 PM 28.4 °F 16.2 °F 21.2 °F 74% 30.19 in 2.0 mi WSW 17.3 mph 28.8 mph 0.00 in Snow Light Snow
3:28 PM 30.2 °F 18.9 °F 19.4 °F 64% 30.20 in 5.0 mi WSW 16.1 mph 27.6 mph 0.00 in Snow Light Snow
3:43 PM 30.2 °F 18.5 °F 19.4 °F 64% 30.21 in 7.0 mi WSW 17.3 mph 24.2 mph 0.00 in Snow Light Snow
3:51 PM 28.9 °F 17.3 °F 21.0 °F 72% 30.24 in 3.0 mi WSW 16.1 mph 24.2 mph 0.00 in Snow Light Snow
3:58 PM 28.4 °F 18.0 °F 21.2 °F 74% 30.21 in 2.0 mi WSW 12.7 mph 24.2 mph 0.00 in Snow Light Snow
4:05 PM 28.4 °F 18.0 °F 21.2 °F 74% 30.21 in 1.5 mi WSW 12.7 mph 24.2 mph 0.00 in Snow Light Snow
4:14 PM 28.4 °F 17.5 °F 21.2 °F 74% 30.22 in 2.0 mi WSW 13.8 mph 19.6 mph 0.00 in Snow Light Snow
4:27 PM 28.4 °F 18.0 °F 21.2 °F 74% 30.22 in 3.0 mi WSW 12.7 mph 26.5 mph 0.00 in Snow Light Snow
4:35 PM 28.4 °F 18.0 °F 21.2 °F 74% 30.23 in 2.0 mi SW 12.7 mph 24.2 mph 0.00 in Snow Light Snow
4:51 PM 28.0 °F 17.0 °F 19.9 °F 72% 30.26 in 5.0 mi WSW 13.8 mph 23.0 mph 0.00 in Snow Light Snow
5:23 PM 28.4 °F 18.5 °F 21.2 °F 74% 30.24 in 1.8 mi WSW 11.5 mph - 0.00 in   Overcast
5:31 PM 28.4 °F 19.7 °F 19.4 °F 69% 30.24 in 3.0 mi SW 9.2 mph 19.6 mph 0.05 in   Overcast
5:51 PM 28.0 °F 18.1 °F 21.9 °F 78% 30.28 in 4.0 mi West 11.5 mph 17.3 mph 0.07 in Snow Light Snow
6:06 PM 28.4 °F 18.0 °F 24.8 °F 86% 30.26 in 1.8 mi West 12.7 mph 20.7 mph 0.00 in Snow Light Snow
6:13 PM 26.6 °F 15.2 °F 23.0 °F 86% 30.26 in 1.2 mi West 13.8 mph 21.9 mph 0.00 in Snow Light Snow
6:18 PM 26.6 °F 14.3 °F 23.0 °F 86% 30.27 in 0.2 mi WSW 16.1 mph 23.0 mph 0.00 in Fog , Snow Heavy Snow
6:25 PM 26.6 °F 16.2 °F 23.0 °F 86% 30.27 in 0.2 mi WSW 11.5 mph 23.0 mph 0.00 in Fog , Snow Heavy Snow
6:51 PM 27.0 °F 17.3 °F 24.1 °F 89% 30.30 in 1.0 mi West 10.4 mph - 0.04 in Snow Light Snow
6:54 PM 26.6 °F 17.5 °F 24.8 °F 93% 30.27 in 2.5 mi WSW 9.2 mph - 0.00 in Snow Light Snow
7:01 PM 26.6 °F 16.2 °F 23.0 °F 86% 30.27 in 4.0 mi West 11.5 mph 20.7 mph 0.00 in Snow Light Snow
7:11 PM 26.6 °F 16.8 °F 23.0 °F 86% 30.28 in 1.2 mi WSW 10.4 mph 24.2 mph 0.00 in Snow Light Snow
7:16 PM 26.6 °F 18.2 °F 23.0 °F 86% 30.28 in 0.5 mi WSW 8.1 mph 17.3 mph 0.00 in Fog , Snow Snow
7:23 PM 26.6 °F 18.2 °F 23.0 °F 86% 30.28 in 0.8 mi SW 8.1 mph - 0.01 in Snow Light Snow
7:29 PM 26.6 °F 17.5 °F 23.0 °F 86% 30.28 in 1.8 mi SW 9.2 mph - 0.01 in Snow Light Snow
7:33 PM 26.6 °F 17.5 °F 21.2 °F 80% 30.28 in 3.0 mi SW 9.2 mph - 0.01 in Snow Light Snow
7:51 PM 26.1 °F 15.0 °F 21.0 °F 81% 30.32 in 6.0 mi SW 12.7 mph - 0.01 in Snow Light Snow
8:30 PM 26.6 °F 18.2 °F 19.4 °F 74% 30.29 in 10.0 mi SW 8.1 mph - 0.00 in   Overcast
8:51 PM 27.0 °F 18.7 °F 19.0 °F 72% 30.32 in 10.0 mi SW 8.1 mph - 0.00 in   Overcast
9:48 PM 26.6 °F 18.2 °F 19.4 °F 74% 30.29 in 10.0 mi SSW 8.1 mph - N/A   Overcast
9:51 PM 26.1 °F 16.8 °F 19.0 °F 75% 30.33 in 10.0 mi SSW 9.2 mph - N/A   Overcast
10:17 PM 26.6 °F 16.2 °F 17.6 °F 69% 30.30 in 10.0 mi SSW 11.5 mph - N/A   Overcast
10:51 PM 26.1 °F 16.2 °F 17.1 °F 69% 30.33 in 10.0 mi SSW 10.4 mph - N/A   Overcast
11:51 PM 26.1 °F 17.6 °F 17.1 °F 69% 30.32 in 10.0 mi South 8.1 mph - 0.03 in   Overcast